�N����,����,�~����,�C��,���x,�C��,����,���ϕ���,�ő�u�ԕ���,�ő厞����,���˗�,�I�_���x,�n�����x,�ő啗���N��,DTYPE
"23/05/27","00:10",0.0,18.2,89.4,1018.0,295.4,1.1,1.3,279.2,0.00,16.5,18.6,"00:09:20",1
"23/05/27","00:20",0.0,18.2,89.6,1017.8,293.2,1.0,1.9,329.1,0.00,16.5,18.6,"00:12:48",1
"23/05/27","00:30",0.0,18.3,89.6,1017.8,323.2,1.2,1.7,329.9,0.00,16.6,18.8,"00:23:12",1
"23/05/27","00:40",0.0,18.4,89.6,1017.5,323.2,1.3,1.8,324.5,0.00,16.7,18.6,"00:37:28",1
"23/05/27","00:50",0.0,18.3,89.7,1017.5,318.9,1.1,1.8,344.5,0.00,16.6,18.7,"00:44:32",1
"23/05/27","01:00",0.0,18.1,89.8,1017.5,301.4,1.3,2.1,335.9,0.00,16.4,18.5,"00:58:40",1
"23/05/27","01:10",0.0,18.0,89.9,1017.5,303.1,1.3,2.2,320.0,0.00,16.4,18.6,"01:00:08",1
"23/05/27","01:20",0.0,17.9,90.0,1017.5,310.7,1.2,1.7,319.3,0.00,16.3,18.4,"01:15:20",1
"23/05/27","01:30",0.0,17.8,90.1,1017.3,307.0,1.5,2.0,314.4,0.00,16.2,18.4,"01:25:44",1
"23/05/27","01:40",0.0,17.7,90.3,1017.5,312.4,1.5,2.1,311.4,0.00,16.1,18.7,"01:32:24",1
"23/05/27","01:50",0.0,17.7,90.5,1017.3,313.5,1.6,2.4,321.7,0.00,16.2,18.5,"01:42:56",1
"23/05/27","02:00",0.0,17.7,90.7,1017.3,302.5,1.1,1.8,317.4,0.00,16.2,18.6,"01:59:36",1
"23/05/27","02:10",0.0,17.7,90.7,1017.1,310.9,1.1,1.8,309.5,0.00,16.2,18.5,"02:02:08",1
"23/05/27","02:20",0.0,17.7,90.9,1017.1,300.1,1.2,1.9,330.8,0.00,16.2,18.5,"02:15:20",1
"23/05/27","02:30",0.0,17.6,91.0,1016.8,314.8,1.3,1.9,309.8,0.00,16.2,18.4,"02:25:52",1
"23/05/27","02:40",0.0,17.5,91.1,1016.6,322.5,1.1,1.7,339.1,0.00,16.1,18.4,"02:31:12",1
"23/05/27","02:50",0.0,17.3,91.2,1016.8,311.9,1.2,1.6,341.8,0.00,15.9,18.5,"02:42:56",1
"23/05/27","03:00",0.0,17.2,91.6,1016.6,305.5,1.2,1.8,324.2,0.00,15.9,18.4,"02:59:12",1
"23/05/27","03:10",0.0,17.2,91.8,1017.1,308.0,1.2,2.0,312.2,0.00,15.9,18.4,"03:01:52",1
"23/05/27","03:20",0.0,17.0,92.0,1017.1,315.4,1.1,1.4,328.9,0.00,15.7,18.4,"03:18:00",1
"23/05/27","03:30",0.0,17.0,92.3,1016.8,328.4,1.5,2.2,326.3,0.00,15.8,18.5,"03:28:56",1
"23/05/27","03:40",0.0,16.9,92.4,1016.8,322.3,1.1,1.6,325.9,0.00,15.7,18.5,"03:31:20",1
"23/05/27","03:50",0.0,16.9,92.6,1017.5,317.3,1.2,1.6,325.9,0.00,15.7,18.1,"03:41:12",1
"23/05/27","04:00",0.0,16.7,92.7,1017.3,297.7,0.7,0.9,318.3,0.00,15.6,18.2,"03:53:36",1
"23/05/27","04:10",0.0,16.8,93.0,1017.1,299.4,1.2,1.9,323.0,0.00,15.7,18.4,"04:08:48",1
"23/05/27","04:20",0.0,16.9,93.1,1017.5,333.6,1.3,1.8,345.1,0.00,15.8,18.4,"04:17:52",1
"23/05/27","04:30",0.0,16.9,93.2,1017.3,318.3,1.2,1.4,340.2,0.00,15.8,18.2,"04:20:40",1
"23/05/27","04:40",0.0,16.7,93.3,1017.5,314.1,0.8,1.6,318.9,0.00,15.7,18.2,"04:30:16",1
"23/05/27","04:50",0.0,16.7,93.5,1017.8,307.5,0.6,1.0,313.8,0.00,15.7,18.3,"04:43:28",1
"23/05/27","05:00",0.0,16.7,93.6,1017.8,306.5,0.7,1.3,315.2,0.00,15.7,18.1,"04:54:24",1
"23/05/27","05:10",0.0,16.7,93.7,1017.8,317.6,1.2,1.3,328.0,0.00,15.7,18.1,"05:01:36",1
"23/05/27","05:20",0.0,16.7,93.8,1017.8,324.9,1.3,1.7,319.4,0.00,15.7,18.1,"05:14:00",1
"23/05/27","05:30",0.0,16.8,93.9,1018.0,334.5,1.1,1.6,328.2,0.00,15.9,18.2,"05:20:02",1
"23/05/27","05:40",0.0,16.8,94.1,1018.0,327.2,1.2,1.6,310.9,0.00,15.9,18.1,"05:37:44",1
"23/05/27","05:50",0.0,16.8,94.2,1018.2,287.3,1.1,1.6,307.5,0.00,15.9,18.2,"05:42:24",1
"23/05/27","06:00",0.0,16.7,94.2,1018.2,292.5,1.0,1.2,303.8,0.00,15.8,17.9,"05:51:12",1
"23/05/27","06:10",0.0,16.7,94.3,1018.2,301.2,1.3,1.9,313.1,0.00,15.8,18.0,"06:09:32",1
"23/05/27","06:20",0.0,16.8,94.3,1018.5,313.4,1.1,1.4,325.8,0.00,15.9,18.0,"06:10:08",1
"23/05/27","06:30",0.0,17.0,94.4,1018.2,328.5,1.0,1.6,307.1,0.02,16.1,18.1,"06:20:56",1
"23/05/27","06:40",0.0,17.2,94.4,1018.5,325.2,1.0,1.4,323.3,0.02,16.3,18.1,"06:38:16",1
"23/05/27","06:50",0.0,17.5,94.4,1018.5,324.4,1.1,1.6,321.8,0.04,16.6,18.0,"06:44:00",1
"23/05/27","07:00",0.0,18.0,94.2,1018.5,300.5,0.8,1.3,321.9,0.07,17.1,18.2,"06:51:28",1
"23/05/27","07:10",0.0,18.7,93.9,1018.2,265.2,0.1,0.6,317.8,0.09,17.7,18.0,"07:00:24",1
"23/05/27","07:20",0.0,19.4,93.7,1018.5,299.7,0.3,0.8,308.5,0.10,18.4,18.0,"07:15:52",1
"23/05/27","07:30",0.0,20.2,93.3,1018.7,323.3,0.6,1.2,340.0,0.11,19.1,18.2,"07:24:32",1
"23/05/27","07:40",0.0,20.5,92.7,1018.7,341.4,0.3,0.8,331.0,0.14,19.3,18.0,"07:33:04",1
"23/05/27","07:50",0.0,20.6,90.9,1018.5,334.9,0.5,1.3,316.7,0.15,19.1,18.1,"07:40:02",1
"23/05/27","08:00",0.0,20.8,89.0,1018.5,258.3,0.5,1.6,333.0,0.14,19.0,18.1,"07:50:08",1
"23/05/27","08:10",0.0,21.4,85.7,1017.8,187.1,0.5,1.3,244.4,0.20,18.9,18.0,"08:02:48",1
"23/05/27","08:20",0.0,21.8,80.6,1017.8,252.4,0.8,1.9,155.2,0.22,18.4,18.1,"08:18:56",1
"23/05/27","08:30",0.0,22.2,77.1,1017.8,227.5,0.8,1.9,188.7,0.23,18.0,18.0,"08:22:48",1
"23/05/27","08:40",0.0,22.5,75.5,1017.3,215.1,0.7,1.7,184.1,0.23,18.0,18.0,"08:34:40",1
"23/05/27","08:50",0.0,23.0,73.5,1017.3,277.7,0.6,1.8,23.6,0.25,18.1,18.2,"08:46:16",1
"23/05/27","09:00",0.0,23.2,71.7,1017.1,3.4,1.1,2.6,13.6,0.26,17.8,18.2,"08:52:40",1
"23/05/27","09:10",0.0,23.4,69.8,1017.5,355.9,1.0,2.1,340.4,0.23,17.6,18.2,"09:06:32",1
"23/05/27","09:20",0.0,23.8,70.2,1017.1,326.5,0.6,1.4,316.9,0.26,18.1,18.2,"09:16:40",1
"23/05/27","09:30",0.0,24.2,70.1,1017.1,122.8,0.7,2.1,120.3,0.36,18.4,18.3,"09:24:16",1
"23/05/27","09:40",0.0,24.2,68.7,1016.6,149.6,0.7,2.0,112.9,0.30,18.1,18.4,"09:32:24",1
"23/05/27","09:50",0.0,24.5,67.8,1016.4,154.8,0.8,1.8,129.2,0.37,18.2,18.3,"09:49:20",1
"23/05/27","10:00",0.0,24.7,66.8,1016.6,151.4,0.8,1.9,132.2,0.40,18.2,18.4,"09:59:12",1
"23/05/27","10:10",0.0,24.3,65.7,1016.8,90.7,0.8,1.9,96.2,0.30,17.5,18.4,"10:02:16",1
"23/05/27","10:20",0.0,24.6,67.0,1016.6,141.1,1.0,2.8,347.0,0.40,18.1,18.6,"10:11:04",1
"23/05/27","10:30",0.0,25.2,64.7,1016.8,44.1,1.0,2.1,345.8,0.43,18.1,18.6,"10:27:44",1
"23/05/27","10:40",0.0,25.5,63.5,1016.8,357.2,0.8,2.5,102.1,0.40,18.1,18.6,"10:39:36",1
"23/05/27","10:50",0.0,25.7,65.8,1016.8,207.6,1.0,3.2,192.7,0.44,18.9,18.6,"10:48:56",1
"23/05/27","11:00",0.0,25.8,65.2,1016.6,218.3,1.2,2.7,211.9,0.49,18.8,18.6,"10:56:40",1
"23/05/27","11:10",0.0,25.7,62.7,1016.6,2.1,1.6,2.8,4.7,0.51,18.1,18.7,"11:05:44",1
"23/05/27","11:20",0.0,26.1,63.0,1016.4,11.1,1.3,2.8,359.9,0.53,18.5,18.9,"11:11:20",1
"23/05/27","11:30",0.0,26.3,60.1,1016.8,155.2,1.1,2.7,141.5,0.54,18.0,19.0,"11:29:20",1
"23/05/27","11:40",0.0,26.8,59.0,1016.6,182.1,1.0,2.6,177.4,0.54,18.2,18.8,"11:37:20",1
"23/05/27","11:50",0.0,27.1,58.9,1016.6,172.0,1.5,3.6,227.7,0.60,18.4,19.1,"11:49:52",1
"23/05/27","12:00",0.0,26.7,58.9,1016.6,203.8,2.0,3.7,238.3,0.58,18.0,18.9,"11:59:20",1
"23/05/27","12:10",0.0,26.2,58.3,1016.1,190.6,1.5,5.4,218.5,0.43,17.4,19.1,"12:06:00",1
"23/05/27","12:20",0.0,26.2,59.0,1015.6,191.7,1.8,3.1,190.9,0.43,17.6,19.3,"12:11:28",1
"23/05/27","12:30",0.0,27.6,59.5,1015.9,142.9,1.1,2.4,126.3,0.59,19.0,19.2,"12:23:28",1
"23/05/27","12:40",0.0,27.2,56.4,1015.9,179.8,1.7,4.0,184.9,0.57,17.8,19.5,"12:34:08",1
"23/05/27","12:50",0.0,27.8,56.3,1015.6,175.3,1.0,2.9,145.3,0.53,18.3,19.5,"12:49:12",1
"23/05/27","13:00",0.0,27.6,57.9,1015.4,159.3,1.7,3.4,231.3,0.58,18.6,19.3,"12:53:12",1
"23/05/27","13:10",0.0,27.5,56.4,1015.2,176.6,2.3,4.7,217.8,0.60,18.1,19.9,"13:05:44",1
"23/05/27","13:20",0.0,27.8,57.5,1015.2,168.4,2.1,4.7,199.5,0.59,18.7,19.6,"13:18:24",1
"23/05/27","13:30",0.0,27.1,56.4,1014.9,185.6,2.6,4.8,233.8,0.54,17.7,19.7,"13:23:44",1
"23/05/27","13:40",0.0,27.5,55.3,1014.7,201.7,2.2,4.1,203.6,0.57,17.8,20.0,"13:32:32",1
"23/05/27","13:50",0.0,26.9,55.7,1014.5,214.3,2.3,5.5,215.8,0.34,17.3,20.0,"13:46:40",1
"23/05/27","14:00",0.0,27.0,58.0,1014.2,185.9,1.8,3.9,236.9,0.39,18.1,19.9,"13:56:32",1
"23/05/27","14:10",0.0,27.9,55.1,1014.2,201.4,1.8,3.6,221.3,0.56,18.1,20.0,"14:07:20",1
"23/05/27","14:20",0.0,28.4,54.5,1014.5,157.4,1.2,2.7,124.8,0.49,18.4,20.1,"14:10:48",1
"23/05/27","14:30",0.0,28.8,53.0,1014.7,227.6,1.5,3.9,211.7,0.56,18.3,20.3,"14:29:36",1
"23/05/27","14:40",0.0,28.1,55.2,1014.2,209.2,2.6,5.2,219.7,0.50,18.3,20.2,"14:35:04",1
"23/05/27","14:50",0.0,27.9,53.4,1014.2,211.1,1.5,4.9,1.4,0.39,17.6,20.2,"14:49:20",1
"23/05/27","15:00",0.0,27.8,55.9,1014.2,178.0,2.3,5.1,229.6,0.44,18.2,20.3,"14:51:28",1
"23/05/27","15:10",0.0,28.1,53.9,1014.0,171.6,1.8,4.1,226.0,0.46,17.9,20.6,"15:07:12",1
"23/05/27","15:20",0.0,28.3,55.2,1014.0,186.8,2.2,4.1,216.5,0.42,18.5,20.4,"15:14:24",1
"23/05/27","15:30",0.0,28.3,54.4,1013.8,220.6,2.3,5.2,231.9,0.42,18.3,20.5,"15:29:28",1
"23/05/27","15:40",0.0,28.3,54.3,1013.8,244.3,1.7,4.7,230.7,0.35,18.2,20.6,"15:31:04",1
"23/05/27","15:50",0.0,28.3,54.7,1013.8,186.6,2.1,4.2,224.3,0.39,18.4,20.6,"15:44:40",1
"23/05/27","16:00",0.0,28.4,51.6,1013.5,237.4,1.5,3.5,247.5,0.37,17.5,20.6,"15:58:24",1
"23/05/27","16:10",0.0,28.1,53.7,1013.3,190.3,2.0,5.2,229.8,0.34,17.9,20.7,"16:02:16",1
"23/05/27","16:20",0.0,28.0,52.7,1013.3,182.7,1.8,3.7,201.1,0.27,17.5,20.7,"16:16:40",1
"23/05/27","16:30",0.0,28.2,54.5,1013.3,200.1,1.7,4.2,234.6,0.29,18.2,20.6,"16:24:08",1
"23/05/27","16:40",0.0,28.0,53.7,1013.3,214.7,2.2,4.0,222.5,0.25,17.8,20.9,"16:30:40",1
"23/05/27","16:50",0.0,27.6,52.9,1013.3,250.7,1.8,4.2,227.9,0.18,17.2,20.9,"16:48:56",1
"23/05/27","17:00",0.0,27.9,52.1,1012.8,242.5,1.7,3.6,233.8,0.24,17.2,20.8,"16:57:12",1
"23/05/27","17:10",0.0,27.6,52.1,1012.6,232.9,1.6,4.2,209.9,0.14,16.9,20.7,"17:06:48",1
"23/05/27","17:20",0.0,27.8,52.6,1012.3,226.0,1.3,2.7,233.0,0.18,17.3,21.0,"17:10:56",1
"23/05/27","17:30",0.0,28.0,52.8,1012.3,219.2,1.7,3.9,188.0,0.17,17.5,20.8,"17:23:36",1
"23/05/27","17:40",0.0,27.4,52.7,1012.1,216.1,2.3,4.3,214.4,0.12,16.9,21.0,"17:34:24",1
"23/05/27","17:50",0.0,27.4,53.7,1012.3,224.6,1.7,3.9,218.0,0.07,17.2,21.1,"17:43:52",1
"23/05/27","18:00",0.0,27.0,53.7,1012.3,277.0,1.3,2.9,251.2,0.04,16.9,21.1,"17:59:04",1
"23/05/27","18:10",0.0,26.6,54.7,1012.3,269.8,1.0,2.2,219.6,0.03,16.8,21.0,"18:08:16",1
"23/05/27","18:20",0.0,26.4,56.1,1012.6,252.2,1.5,3.2,227.5,0.03,17.0,20.9,"18:18:56",1
"23/05/27","18:30",0.0,26.5,57.4,1012.6,245.1,1.5,2.9,242.2,0.05,17.4,21.1,"18:20:02",1
"23/05/27","18:40",0.0,26.2,58.1,1012.3,257.9,1.7,4.3,230.4,0.05,17.4,20.9,"18:30:02",1
"23/05/27","18:50",0.0,26.0,59.5,1013.0,242.8,1.6,4.7,232.3,0.03,17.5,20.9,"18:42:00",1
"23/05/27","19:00",0.0,25.4,60.5,1012.8,266.6,1.0,2.5,252.7,0.01,17.2,21.1,"18:59:12",1
"23/05/27","19:10",0.0,24.8,62.2,1013.5,249.5,1.3,2.6,256.7,0.00,17.1,21.1,"19:03:04",1
"23/05/27","19:20",0.0,24.4,63.5,1013.5,302.5,0.6,2.1,335.1,0.00,17.1,20.9,"19:18:48",1
"23/05/27","19:30",0.0,24.2,64.4,1014.2,303.1,1.0,2.4,320.3,0.00,17.1,20.9,"19:28:40",1
"23/05/27","19:40",0.0,24.0,65.5,1014.5,315.3,1.6,3.5,332.9,0.00,17.2,20.9,"19:33:28",1
"23/05/27","19:50",0.0,23.5,66.8,1014.5,329.2,1.7,2.8,328.8,0.00,17.0,20.8,"19:46:00",1
"23/05/27","20:00",0.0,23.3,67.3,1014.9,297.3,1.3,3.1,333.0,0.00,16.9,20.7,"19:59:44",1
"23/05/27","20:10",0.0,23.3,67.5,1015.2,326.2,1.2,2.6,339.5,0.00,17.0,20.7,"20:00:40",1
"23/05/27","20:20",0.0,23.0,68.1,1014.9,310.2,0.5,1.2,301.3,0.00,16.8,20.7,"20:12:32",1
"23/05/27","20:30",0.0,22.8,68.9,1014.9,234.7,0.3,0.8,190.2,0.00,16.8,20.7,"20:21:04",1
"23/05/27","20:40",0.0,22.9,70.5,1015.2,333.0,1.2,1.7,345.1,0.00,17.3,20.7,"20:33:44",1
"23/05/27","20:50",0.0,22.5,71.7,1015.4,342.9,0.8,1.9,327.5,0.00,17.2,20.7,"20:48:08",1
"23/05/27","21:00",0.0,22.0,74.0,1015.2,352.6,1.2,2.1,333.9,0.00,17.2,20.6,"20:52:40",1
"23/05/27","21:10",0.0,21.6,75.9,1015.4,345.7,1.3,2.2,340.0,0.00,17.2,20.7,"21:08:24",1
"23/05/27","21:20",0.0,21.2,77.6,1015.2,344.0,1.5,2.2,344.6,0.00,17.2,20.5,"21:10:40",1
"23/05/27","21:30",0.0,20.9,79.2,1015.4,341.2,1.7,2.4,342.7,0.00,17.2,20.5,"21:28:40",1
"23/05/27","21:40",0.0,20.6,80.4,1015.4,339.3,1.3,2.6,338.7,0.00,17.1,20.6,"21:33:44",1
"23/05/27","21:50",0.0,20.5,81.4,1015.6,335.6,1.3,2.0,329.4,0.00,17.2,20.5,"21:49:20",1
"23/05/27","22:00",0.0,20.4,82.2,1015.4,332.9,1.5,1.7,334.7,0.00,17.3,20.5,"21:50:08",1
"23/05/27","22:10",0.0,20.2,82.8,1015.6,328.5,1.3,2.0,318.3,0.00,17.2,20.2,"22:05:28",1
"23/05/27","22:20",0.0,20.2,83.1,1015.6,336.1,1.3,2.5,355.1,0.00,17.3,20.3,"22:15:28",1
"23/05/27","22:30",0.0,20.3,83.1,1015.9,335.5,1.5,2.1,337.7,0.00,17.4,20.3,"22:27:12",1
"23/05/27","22:40",0.0,20.0,83.3,1015.9,301.1,1.1,1.7,343.7,0.00,17.1,20.3,"22:36:48",1
"23/05/27","22:50",0.0,19.6,83.7,1016.1,306.6,1.5,2.0,333.0,0.00,16.8,20.3,"22:40:08",1
"23/05/27","23:00",0.0,19.5,84.4,1016.1,302.5,1.6,3.4,326.4,0.00,16.8,19.9,"22:59:12",1
"23/05/27","23:10",0.0,19.4,84.9,1015.9,316.5,1.6,2.6,320.0,0.00,16.8,20.2,"23:00:08",1
"23/05/27","23:20",0.0,19.1,85.4,1016.4,316.1,1.3,2.8,317.8,0.00,16.6,20.1,"23:10:32",1
"23/05/27","23:30",0.0,19.0,86.0,1016.1,312.9,1.1,2.0,319.4,0.00,16.6,20.1,"23:26:48",1
"23/05/27","23:40",0.0,18.9,86.6,1016.1,318.4,1.8,2.4,320.7,0.00,16.7,19.9,"23:33:28",1
"23/05/27","23:50",0.0,18.8,87.0,1016.4,311.8,1.6,2.1,316.5,0.00,16.6,20.0,"23:44:24",1
"23/05/27","24:00",0.0,18.7,87.5,1016.4,291.8,1.1,1.8,323.0,0.00,16.6,20.1,"23:56:48",1
